Home > Time Zones > World Clock > Weather > China > Sian > Past weeks

Flag for China Weather past 2 weeks in Sian, Shaanxi, China

Now
73 °F

Thunderstorms. Fog.


Feels Like: 70 °F
Forecast: 74 / 89 °F
Wind: 3 mph from Northeast

Location: Xian/Xianyang

Current Time: Jul 23, 2014 at 7:13:41 AM

Latest Report: Jul 23, 2014 at 12:00 AM


Visibility: 2 mi

Pressure: 29.83 "Hg

Humidity: 94%

Dew point: 72 °F

Location of SianLocation

Historic Weather in Sian — Graph

°F

Sian temperature yesterday

Maximum temperature yesterday: 106 °F (at 4:00 PM)
Minimum temperature yesterday: 72 °F (at 11:00 PM)
Average temperature yesterday: 91 °F

Past Weeks' High & Low Weather Summary

 TemperatureHumidityPressure
High106 °F (Jul 22, 4:00 PM)100% (Jul 9, 5:00 AM)29.83 "Hg (Jul 9, 5:00 AM)
Low66 °F (Jul 13, 5:00 AM)25% (Jul 13, 5:00 PM)29.47 "Hg (Jul 8, 5:00 PM)
Average83 °F58%29.69 "Hg
* Reported Midnight between Jul 7 and Jul 8 — Midnight between Jul 22 and Jul 23, Sian, Weather by CustomWeather, © 2014

Note: Actual official high and low records may vary slightly from our data, if they occured in-between our weather recording intervals... More about our weather records

Advertising

Sian weather history for previous 24 hours

 ConditionsComfort  
Time TempWeatherWind HumidityBarometerVisibility
12:00 AM
Jul 23
73 °FThunderstorms. Fog.3 mph94%29.83 "Hg2 mi
11:00 PM
Jul 22
72 °FStrong thunderstorms. Partly cloudy.6 mph94%29.80 "Hg1 mi
10:00 PM88 °FThunderstorms. Passing clouds.6 mph49%29.71 "HgN/A
9:00 PM90 °FPassing clouds.6 mph52%29.65 "HgN/A
8:00 PM90 °FScattered clouds.10 mph52%29.62 "HgN/A
7:00 PM102 °FScattered clouds.3 mph33%29.56 "HgN/A
6:00 PM102 °FPassing clouds.1 mph33%29.56 "HgN/A
5:00 PM104 °FPassing clouds.3 mph29%29.56 "HgN/A
4:00 PM106 °FPassing clouds.3 mph30%29.56 "HgN/A
3:00 PM100 °FPassing clouds.1 mph35%29.59 "HgN/A
2:00 PM102 °FPassing clouds.1 mph33%29.62 "HgN/A
1:00 PM99 °FSunny.3 mph37%29.65 "Hg10 mi
12:00 PM99 °FSunny.1 mph37%29.65 "Hg10 mi
11:00 AM97 °FSunny.1 mph42%29.68 "Hg10 mi
10:00 AM93 °FSunny.1 mph49%29.68 "Hg10 mi
9:00 AM91 °FSunny.1 mph52%29.68 "Hg10 mi
8:00 AM88 °FSunny.1 mph55%29.68 "Hg10 mi
7:00 AM84 °FSunny.No wind62%29.65 "Hg10 mi
Weather by CustomWeather, © 2014

See weather overviewHow to use our weather pages